Theta_e
308 307 307 307 306 305 303 302 297 310 313 298 299 292 298 299 299 303 300 300 298 298 299 297 295 295 299 305 302 297 297 292 287 291 297 299 295 292 295 287 290 292 291 290
308 307 307 307 306 305 300 297 301 311 306 291 291 298 299 300 299 298 298 297 301 302 298 296 298 298 303 304 302 298 298 291 283 285 290 294 291 293 295 295 292 289 287 291
307 307 306 306 306 305 302 300 293 299 299 298 295 294 296 295 301 299 300 300 301 298 297 301 299 298 302 303 303 312 305 294 288 284 287 291 290 293 297 295 287 290 292 295
307 307 306 306 306 305 302 299 294 296 289 292 293 296 297 293 293 298 300 297 297 295 295 297 296 300 302 303 308 301 300 293 298 292 294 294 293 293 295 296 296 292 296 296
306 306 306 306 306 305 304 294 292 294 293 296 294 294 292 292 294 295 294 295 297 296 296 297 294 298 299 299 303 300 303 294 297 296 294 294 293 295 296 297 298 298 300 300
306 306 305 306 306 305 300 302 300 295 294 293 291 291 293 294 294 299 299 298 296 295 299 300 301 302 302 302 300 300 300 296 294 290 296 294 288 292 294 297 302 301 293 302
306 306 305 305 306 305 301 301 299 293 288 291 291 293 295 293 295 294 298 299 298 300 305 304 304 303 303 303 304 306 298 296 295 291 294 284 294 301 299 297 304 304 307 308
306 305 304 304 306 306 300 302 299 293 287 292 292 293 294 294 296 297 298 300 303 303 302 297 296 296 298 302 304 302 302 296 291 288 288 295 299 303 300 301 301 307 306 306
306 305 304 304 305 305 301 300 304 298 290 289 293 291 292 289 289 293 296 301 302 303 299 297 289 287 294 293 297 303 303 299 292 290 287 286 297 305 309 309 296 306 305 305
306 305 304 304 304 305 302 300 304 301 292 294 295 290 290 295 293 291 295 297 297 302 294 292 291 291 299 290 292 293 293 294 290 290 288 292 302 307 310 293 296 307 306 306
305 304 304 303 304 304 302 298 302 299 295 296 297 298 293 292 292 289 294 293 296 295 290 289 292 293 296 295 298 298 294 291 290 293 288 286 309 307 301 304 307 310 309 308
305 304 304 303 303 303 303 296 302 304 298 294 300 300 301 299 298 295 295 295 296 296 293 291 291 292 296 296 292 300 295 298 294 296 296 305 309 309 310 309 308 308 308 307
305 304 304 303 303 303 302 298 300 299 296 295 296 296 302 307 304 304 294 297 301 300 301 296 293 289 296 292 295 297 301 306 301 300 301 302 309 312 312 311 308 311 308 307
305 304 303 303 303 304 303 298 300 299 297 290 293 303 299 304 304 305 305 303 303 302 300 296 294 291 298 295 296 297 301 303 298 300 305 305 307 312 314 314 312 309 308 306
305 304 303 303 303 304 302 300 301 302 295 290 291 298 302 303 305 304 307 304 302 299 295 294 293 297 297 299 297 296 304 303 299 296 306 303 305 313 314 310 309 309 307 305
304 304 303 303 302 303 297 294 304 304 303 294 287 297 297 302 305 303 302 305 303 299 296 296 298 301 296 292 292 301 305 308 309 305 311 310 310 314 314 311 309 309 306 304
303 302 302 302 302 300 293 294 300 303 300 295 289 290 300 304 304 305 304 305 301 300 298 296 297 298 298 294 291 298 301 303 305 311 312 309 310 306 309 308 307 305 303 301
302 302 302 302 302 300 295 299 301 302 298 298 289 289 294 305 300 298 305 300 301 300 297 298 297 298 297 291 297 299 302 303 305 306 312 307 306 305 303 302 301 298 297 297
302 301 301 300 297 294 301 309 308 302 299 292 292 287 287 302 300 300 301 302 293 300 294 296 297 294 290 295 298 298 299 298 300 303 306 304 301 300 300 298 297 295 295 295
301 299 297 295 300 309 307 303 298 296 296 295 289 293 288 294 293 296 297 297 294 290 294 299 293 292 299 299 298 298 298 301 303 300 298 298 297 297 296 296 296 296 296 296
300 297 297 301 307 302 299 294 292 292 289 292 293 293 290 298 291 291 298 294 295 290 293 293 290 290 296 298 298 299 300 300 300 299 299 299 298 296 295 296 297 297 296 295
296 295 300 300 297 295 291 290 293 291 289 295 294 297 297 297 302 296 298 295 296 289 297 293 288 294 297 297 297 299 299 299 297 298 297 297 297 297 296 296 295 295 296 296
300 296 293 290 291 285 285 285 289 291 297 298 298 295 299 300 301 297 296 292 292 300 292 289 293 296 298 298 299 299 300 300 299 298 298 299 298 298 297 296 296 296 295 295
292 290 283 286 286 288 290 290 293 298 299 298 298 297 297 298 296 296 292 296 296 289 286 289 294 296 297 298 300 300 299 299 299 299 298 297 297 296 298 296 295 294 294 294
290 291 284 287 292 294 296 298 298 299 300 299 297 297 298 295 294 296 295 291 289 290 289 294 298 299 299 299 300 300 300 300 299 298 296 295 294 294 294 295 294 294 294 294
292 291 288 292 291 293 295 296 295 300 299 299 298 294 292 292 294 292 291 290 286 292 297 299 300 300 301 302 302 302 298 296 295 295 295 295 295 293 293 294 294 294 294 293
290 289 293 292 292 292 294 296 296 300 297 293 294 289 290 296 292 291 295 291 296 300 301 302 301 301 302 303 300 300 299 298 297 296 296 295 295 295 294 292 294 293 293 293
Wind_Speed
22 25 27 30 26 33 13 7 4 4 6 5 1 1 2 7 10 6 4 8 11 12 17 13 10 10 12 12 6 7 2 2 5 7 7 8 6 7 7 5 1 2 6 7
20 23 26 28 30 21 9 8 5 2 7 4 5 6 4 2 7 5 5 7 8 16 11 8 8 4 5 12 3 3 3 3 2 2 6 6 3 5 6 8 2 2 3 6
19 21 24 28 31 27 8 4 5 5 5 5 6 8 9 6 5 3 7 10 10 18 11 11 8 7 4 10 9 5 4 4 6 8 5 4 6 12 7 7 5 2 4 11
17 18 21 25 30 33 4 4 4 4 6 8 16 15 7 9 6 3 6 5 13 13 7 13 14 13 18 2 10 6 4 3 5 6 13 15 16 10 7 6 10 3 6 9
15 16 18 22 25 34 1 5 5 5 14 12 14 4 8 9 11 4 3 4 11 11 7 7 15 15 9 5 13 8 6 4 6 5 19 19 14 12 10 13 17 17 5 9
12 14 16 18 20 20 5 6 5 4 7 10 11 11 17 14 11 1 6 6 7 11 9 12 16 16 16 17 10 7 5 3 6 6 7 5 7 8 7 9 22 22 4 4
11 12 14 15 15 12 5 5 6 5 6 8 11 19 16 16 15 12 7 5 5 10 20 21 14 18 19 15 19 11 2 4 4 5 8 5 3 5 8 6 19 20 18 17
8 10 11 12 12 12 4 6 2 3 7 8 14 15 16 17 16 7 5 10 5 10 12 5 6 3 3 11 13 8 9 6 1 3 4 3 3 8 8 3 9 16 24 21
6 8 9 11 10 11 5 7 4 2 5 5 14 15 11 9 8 7 8 10 6 6 4 4 3 3 3 3 5 14 12 11 7 6 5 2 5 8 10 3 8 4 13 14
5 8 8 10 11 11 6 6 5 3 5 11 8 11 10 8 9 6 5 7 5 4 3 3 3 4 4 3 4 6 6 7 11 7 2 11 10 4 5 5 10 10 8 11
6 8 9 10 11 12 7 7 9 4 5 14 14 10 15 15 8 4 6 6 3 3 4 3 5 4 4 5 5 9 4 8 6 5 5 6 6 2 6 5 9 15 15 15
7 8 10 11 12 12 9 6 6 7 4 10 19 23 26 22 25 9 3 3 2 3 2 0 4 4 5 6 5 7 4 3 5 4 7 10 4 8 8 18 19 9 17 17
7 9 10 11 12 12 9 7 7 7 6 11 9 13 15 4 12 14 4 4 4 2 1 1 2 4 4 4 3 5 4 5 4 5 7 7 8 12 7 6 13 14 21 23
8 8 10 12 13 14 12 7 6 5 4 5 8 14 18 19 11 16 15 2 4 3 1 2 3 3 3 4 4 5 4 7 6 5 5 5 9 4 22 13 18 23 21 21
9 9 10 12 13 13 10 9 8 8 4 5 10 20 16 9 7 12 12 10 5 2 1 2 3 3 3 4 5 5 3 2 3 3 5 3 11 19 23 23 21 21 24 20
9 10 11 11 12 11 5 4 3 5 3 4 6 8 15 11 4 11 11 10 4 3 3 3 3 3 1 3 4 3 8 4 2 7 8 7 10 8 12 20 18 19 20 19
9 11 12 12 11 5 4 4 3 10 4 3 6 6 5 5 6 2 3 6 3 3 3 3 3 4 4 3 4 7 13 11 12 4 8 1 8 14 17 22 20 20 19 19
11 12 13 13 13 13 7 9 21 8 3 3 4 6 5 4 4 4 3 2 3 3 2 2 2 1 2 5 6 5 7 9 12 9 13 13 15 19 19 20 21 21 18 18
12 14 18 6 4 4 2 4 1 6 2 3 3 4 5 1 3 4 2 2 2 3 3 3 4 3 5 4 3 5 6 6 12 12 16 17 20 17 17 18 18 18 16 17
13 7 3 3 4 5 7 3 3 3 3 3 6 5 11 9 7 3 2 3 3 4 6 3 4 3 1 6 4 3 7 11 9 17 15 16 18 16 16 16 14 14 14 15
4 2 2 4 2 3 4 3 4 3 4 5 5 7 7 4 4 4 4 3 4 3 4 3 1 2 3 6 6 5 4 12 16 15 16 14 16 15 15 14 14 14 16 15
3 4 6 4 3 3 4 4 5 6 5 5 3 8 7 4 4 2 4 4 3 5 7 3 2 1 8 9 9 8 8 17 20 19 19 20 19 16 16 14 14 13 13 12
3 2 4 2 4 4 6 5 5 2 5 2 1 8 3 3 1 3 4 4 3 0 4 2 2 5 7 9 9 11 11 17 18 18 16 16 14 14 14 11 9 9 8 13
3 4 4 5 5 6 6 6 5 3 4 5 3 4 2 3 1 4 4 4 3 3 4 3 4 6 9 8 8 10 11 11 13 14 15 16 16 13 12 11 10 8 10 12
4 4 6 8 8 8 7 5 2 4 4 6 4 4 2 3 4 4 2 3 3 2 0 4 8 10 11 10 10 10 12 9 9 10 12 15 14 13 11 10 11 10 10 12
4 7 7 6 6 7 4 4 5 4 3 4 2 4 2 3 4 5 4 2 2 1 3 7 9 10 7 10 11 9 11 12 12 12 12 13 12 12 11 10 9 10 10 11
6 6 8 9 9 8 7 3 4 6 3 2 2 4 5 4 4 3 3 5 0 4 8 8 11 9 5 5 10 12 12 12 12 13 12 12 12 11 10 10 7 11 10 11
Wind_Direction
336 338 339 337 349 343 358 327 317 308 5 30 52 83 256 6 344 352 289 280 264 274 319 279 201 218 234 190 192 199 285 304 166 217 194 227 249 290 120 127 353 236 161 277
336 339 339 338 339 1 320 308 269 316 42 21 357 318 340 89 22 334 352 304 310 318 307 312 194 247 204 178 130 174 323 294 128 262 301 305 275 268 139 111 78 27 66 274
335 339 341 340 336 343 336 299 332 335 337 354 344 319 299 352 63 16 336 293 332 343 322 334 347 292 183 141 169 191 99 246 166 192 215 212 252 256 166 109 86 48 256 295
335 341 343 344 340 335 329 345 342 33 310 322 309 299 311 344 359 152 41 329 1 340 312 334 2 351 329 126 160 202 159 275 352 211 192 213 237 232 208 127 120 69 292 297
333 341 345 349 348 335 44 3 346 339 293 293 298 310 357 328 335 2 7 305 326 319 304 9 311 318 330 311 331 312 21 314 0 288 203 218 221 226 241 162 146 203 295 263
330 341 349 353 358 349 336 3 323 262 285 308 333 346 328 341 347 44 201 342 326 309 335 315 282 276 270 266 289 293 359 92 19 293 319 306 211 207 237 163 171 147 98 254
328 340 348 350 355 8 326 303 318 296 290 321 328 315 335 331 323 312 348 9 336 337 324 308 271 260 259 261 263 237 200 73 30 282 332 282 243 199 207 197 139 136 107 88
321 335 342 345 345 348 325 286 290 303 293 309 311 334 339 339 337 10 8 27 354 314 297 270 292 227 218 229 245 261 147 114 78 344 304 271 337 49 50 44 73 115 121 110
307 327 333 333 337 338 320 303 301 282 304 233 344 338 316 315 317 340 333 351 343 341 273 294 273 252 257 252 207 83 79 90 95 347 292 245 244 6 24 155 98 171 123 137
303 310 318 322 325 332 329 279 304 259 274 276 301 315 304 304 325 286 324 336 338 345 329 286 254 254 295 249 261 170 113 130 185 193 83 291 265 330 322 91 184 180 167 148
276 297 305 312 321 327 329 293 288 267 268 287 266 291 297 299 281 273 349 340 47 288 355 334 334 310 323 355 327 322 189 158 190 167 124 280 221 66 93 190 147 158 170 159
268 294 303 311 317 319 327 276 311 317 263 278 297 280 267 253 249 265 239 242 45 267 291 259 299 318 309 338 314 349 256 61 288 144 179 197 267 79 309 177 153 160 128 127
270 292 295 305 308 310 309 290 288 291 271 279 262 268 275 2 216 217 221 220 174 207 51 314 261 284 322 322 14 307 284 335 357 336 317 181 147 148 192 206 137 140 132 127
253 273 289 302 303 306 309 284 283 289 290 284 289 337 315 305 286 200 216 91 69 109 130 241 244 262 316 307 282 265 231 326 315 308 65 312 274 98 148 147 124 118 119 127
267 277 294 299 315 325 309 270 249 246 218 291 305 303 271 283 247 191 192 200 168 158 168 240 234 249 273 271 250 253 161 352 327 266 49 298 270 132 128 124 129 128 127 130
280 297 304 313 316 334 312 295 77 60 349 274 303 320 289 294 245 184 200 190 160 151 190 225 269 255 138 288 293 44 51 92 265 313 312 266 279 129 123 118 119 122 119 118
286 296 302 305 306 301 249 285 311 305 346 280 289 273 256 260 224 141 106 160 146 162 207 217 218 218 178 255 234 309 327 331 319 18 326 13 210 102 105 104 105 102 101 101
294 299 298 299 298 279 260 243 250 242 247 245 267 277 276 23 29 25 6 138 157 188 221 243 226 123 204 249 260 300 303 306 296 286 210 126 100 87 90 96 102 100 101 101
297 301 292 275 213 243 252 301 69 174 236 275 257 266 288 287 115 199 197 210 166 155 222 229 155 176 219 229 262 313 329 305 297 302 118 109 101 101 98 100 103 107 110 110
300 285 228 235 199 285 286 203 196 153 202 231 254 256 270 315 314 275 131 215 237 204 217 138 207 250 239 83 60 343 295 265 258 119 108 104 100 99 101 106 107 109 113 110
192 261 273 323 62 245 209 243 223 165 240 220 239 226 231 249 209 233 156 230 208 240 184 205 219 253 118 106 69 15 11 84 78 82 84 81 92 103 104 102 102 104 106 112
313 294 266 254 258 225 271 233 203 199 243 168 266 308 195 252 165 146 208 246 208 252 136 212 204 71 129 116 95 70 77 90 85 83 86 81 77 76 83 86 88 93 105 120
258 203 252 205 264 246 232 228 208 234 316 81 247 300 274 301 101 220 240 248 244 295 212 150 83 112 120 130 120 97 86 86 90 91 88 86 84 78 86 98 116 126 107 104
231 234 254 233 209 226 219 267 325 320 270 301 274 292 293 313 300 265 243 231 255 260 180 150 129 144 123 150 137 136 135 131 126 125 123 128 138 156 157 135 127 128 115 116
243 229 239 227 242 278 327 311 281 340 317 320 327 289 244 266 281 261 277 270 267 336 237 146 143 150 138 140 151 149 144 153 152 136 120 111 110 106 98 89 97 99 98 105
246 235 258 287 290 273 311 308 318 314 297 321 261 275 279 243 233 246 240 261 235 224 84 128 140 148 152 167 174 159 127 125 122 120 119 120 120 121 119 113 125 135 129 127
235 233 238 253 269 291 295 313 275 288 293 305 324 271 239 296 239 244 1 2 95 94 121 136 146 140 150 203 144 142 143 141 132 134 134 131 134 139 139 148 140 121 117 112